DW1437 Weather Reports


time (UTC)temp
C
wind
direction
speed
KPH
gust
KPH
rain 1hr
cm
rain 24hr
cm
rain mn
cm
humidity
%
barometer
mb
20260902230806 18 261 1.6 12.9 0.00 0.18 0.00 89 1014.7
20260902225739 18 246 1.6 12.9 0.00 0.18 0.18 89 1014.7
20260902223635 18 192 4.8 12.9 0.00 0.18 0.18 89 1014.7
20260902222601 18 228 1.6 11.3 0.00 0.18 0.18 89 1014.7
20260902221607 18 334 1.6 6.4 0.00 0.18 0.18 89 1014.8
20260902220534 18 163 0.0 3.2 0.00 0.18 0.18 89 1014.8
20260902215555 18 97 0.0 0.0 0.00 0.18 0.18 89 1014.8
20260902214534 18 302 0.0 4.8 0.00 0.18 0.18 89 1014.9
20260902213518 18 213 0.0 3.2 0.00 0.18 0.18 88 1014.7
20260902212457 18 127 0.0 3.2 0.00 0.18 0.18 88 1014.8
20260902211441 18 189 0.0 4.8 0.00 0.18 0.18 88 1014.7
20260902210445 18 294 0.0 0.0 0.00 0.18 0.18 87 1014.9
20260902205437 18 294 0.0 3.2 0.00 0.18 0.18 87 1014.9
20260902204414 18 290 1.6 8.0 0.00 0.18 0.18 87 1014.9
20260902203359 18 267 1.6 8.0 0.00 0.18 0.18 86 1014.6
20260902201217 18 285 4.8 11.3 0.00 0.18 0.18 86 1014.5
20260902200219 18 254 3.2 11.3 0.00 0.18 0.18 86 1014.7
20260902195229 18 240 1.6 6.4 0.00 0.18 0.18 85 1014.6
20260902193045 19 256 3.2 17.7 0.00 0.18 0.18 84 1014.4
20260902192015 19 255 6.4 17.7 0.00 0.18 0.18 84 1014.3
20260902190942 19 240 3.2 11.3 0.00 0.18 0.18 84 1014.4
20260902185952 19 283 3.2 11.3 0.00 0.18 0.18 84 1014.4
20260902184949 20 285 3.2 11.3 0.00 0.18 0.18 84 1014.1
20260902184002 20 268 6.4 25.7 0.00 0.18 0.18 83 1014.1
20260902183016 20 171 4.8 25.7 0.00 0.18 0.18 84 1014.2
20260902182011 20 259 4.8 17.7 0.00 0.18 0.18 84 1014.0
20260902180956 20 288 4.8 17.7 0.00 0.18 0.18 86 1014.0
20260902180004 20 263 6.4 14.5 0.00 0.18 0.18 87 1014.0
20260902174935 20 234 6.4 14.5 0.00 0.18 0.18 88 1014.0
20260902172845 20 256 6.4 12.9 0.00 0.18 0.18 89 1013.8
20260902171835 20 210 6.4 17.7 0.00 0.18 0.18 89 1013.7
20260902170851 20 256 4.8 17.7 0.00 0.18 0.18 89 1013.7
20260902165817 20 285 4.8 12.9 0.00 0.18 0.18 89 1013.8
20260902164813 20 269 6.4 12.9 0.00 0.18 0.18 89 1013.8
20260902163801 20 277 6.4 12.9 0.00 0.18 0.18 89 1014.0
20260902161621 20 198 6.4 17.7 0.00 0.18 0.18 90 1014.0
20260902160610 20 225 8.0 19.3 0.00 0.18 0.18 90 1013.9
20260902155626 20 207 8.0 20.9 0.00 0.18 0.18 91 1013.8
20260902154611 20 252 9.7 20.9 0.00 0.18 0.18 92 1013.8
20260902153555 19 313 8.0 20.9 0.00 0.18 0.18 94 1013.8
20260902152601 19 317 6.4 19.3 0.00 0.18 0.18 95 1013.8
20260902151554 19 284 6.4 19.3 0.00 0.18 0.18 95 1013.8
20260902150606 19 312 6.4 14.5 0.00 0.18 0.18 96 1013.8
20260902145625 18 36 3.2 12.9 0.00 0.18 0.18 96 1013.9
20260902144642 18 339 3.2 14.5 0.00 0.18 0.18 96 1014.1
20260902142512 18 236 3.2 11.3 0.00 0.18 0.18 96 1014.1
20260902141458 18 316 1.6 6.4 0.00 0.18 0.18 96 1014.2
20260902140450 18 76 1.6 11.3 0.00 0.18 0.18 96 1014.3
20260902135430 18 282 1.6 11.3 0.00 0.18 0.18 96 1014.3
20260902134428 17 15 1.6 9.7 0.08 0.18 0.18 95 1014.3
20260902133448 17 115 1.6 9.7 0.08 0.18 0.18 95 1014.5
20260902132420 17 308 1.6 9.7 0.00 0.18 0.18 95 1014.7
20260902131346 17 30 1.6 9.7 0.00 0.15 0.15 95 1014.8
20260902125134 17 97 1.6 11.3 0.00 0.15 0.15 95 1014.9
20260902124111 17 300 1.6 11.3 0.00 0.15 0.15 95 1014.9
20260902123101 17 41 1.6 19.3 0.00 0.15 0.15 94 1015.1
20260902122059 17 64 3.2 19.3 0.00 0.15 0.15 94 1015.3
20260902121058 17 239 1.6 11.3 0.00 0.13 0.13 94 1015.4
20260902120030 17 100 1.6 11.3 0.00 0.13 0.13 95 1015.4
20260902115049 17 355 1.6 11.3 0.00 0.13 0.13 95 1015.5
20260902112958 16 128 1.6 11.3 0.00 0.10 0.10 94 1015.7
20260902112018 17 16 1.6 11.3 0.00 0.10 0.10 94 1015.9
20260902110947 17 242 0.0 6.4 0.00 0.10 0.10 95 1016.1
20260902110007 16 340 1.6 4.8 0.00 0.10 0.10 95 1016.3
20260902103844 16 252 0.0 1.6 0.00 0.10 0.10 95 1016.7
20260902102822 16 309 0.0 3.2 0.00 0.10 0.10 95 1016.8
20260902101806 16 98 0.0 9.7 0.00 0.10 0.10 94 1016.9
20260902100829 16 198 0.0 4.8 0.00 0.10 0.10 94 1017.1
20260902095813 16 97 0.0 0.0 0.00 0.10 0.10 94 1017.1
20260902092534 16 87 0.0 1.6 0.00 0.08 0.08 94 1017.3
20260902091500 16 187 0.0 6.4 0.00 0.08 0.08 95 1017.3
20260902090447 15 82 0.0 1.6 0.00 0.08 0.08 95 1017.3
20260902085503 15 111 0.0 1.6 0.00 0.08 0.08 95 1017.3
20260902083339 15 42 0.0 3.2 0.00 0.08 0.08 95 1017.4
20260902082311 15 216 0.0 1.6 0.00 0.08 0.08 95 1017.5
20260902081306 15 153 0.0 0.0 0.00 0.08 0.08 95 1017.7
20260902080258 15 282 0.0 0.0 0.00 0.08 0.08 95 1017.7
20260902074132 15 5 0.0 3.2 0.00 0.08 0.08 95 1017.6
20260902073156 15 115 0.0 0.0 0.00 0.08 0.08 94 1017.5
20260902071031 15 218 0.0 0.0 0.00 0.08 0.08 94 1017.6
20260902070019 15 318 0.0 4.8 0.00 0.05 0.05 94 1017.5
20260902064951 15 221 0.0 3.2 0.00 0.05 0.05 94 1017.6
20260902063958 15 280 0.0 0.0 0.00 0.05 0.05 94 1017.5
20260902062951 15 300 0.0 1.6 0.00 0.03 0.05 94 1017.4
20260902062002 15 340 0.0 0.0 0.00 0.03 0.03 94 1017.4
20260902061008 15 346 0.0 0.0 0.00 0.03 0.03 94 1017.5
20260902060019 15 327 0.0 0.0 0.00 0.00 0.00 93 1017.5
20260902055029 15 327 0.0 0.0 0.00 0.00 0.00 93 1017.4
20260902052851 14 296 0.0 0.0 0.00 0.00 0.00 92 1017.4
20260902051817 15 296 0.0 0.0 0.00 0.00 0.00 92 1017.4
20260902050827 15 296 0.0 0.0 0.00 0.00 0.00 92 1017.5
20260902045819 15 296 0.0 0.0 0.00 0.00 0.00 92 1017.6
20260902044843 15 300 0.0 3.2 0.00 0.00 0.00 92 1017.7
20260902043840 15 302 1.6 4.8 0.00 0.00 0.00 92 1017.6
20260902042842 15 329 1.6 4.8 0.00 0.00 0.00 92 1017.8
20260902041825 15 273 1.6 4.8 0.00 0.00 0.00 92 1017.8
20260902040811 15 286 1.6 4.8 0.00 0.00 0.00 92 1017.8
20260902035748 15 294 0.0 4.8 0.00 0.00 0.00 92 1017.7
20260902034722 15 278 1.6 9.7 0.00 0.00 0.00 92 1017.7
20260902033703 15 237 1.6 8.0 0.00 0.00 0.00 92 1017.9
20260902032637 15 53 0.0 0.0 0.00 0.00 0.00 92 1017.9
20260902031700 15 53 0.0 0.0 0.00 0.00 0.00 92 1017.8
20260902030642 15 53 0.0 0.0 0.00 0.00 0.00 92 1018.0
20260902024525 15 313 0.0 0.0 0.00 0.00 0.00 92 1018.1
20260902023507 15 313 0.0 0.0 0.00 0.00 0.00 91 1018.3
20260902022506 15 288 0.0 1.6 0.00 0.00 0.00 91 1018.4
20260902021531 15 309 0.0 1.6 0.00 0.00 0.00 91 1018.4
20260902020518 15 293 0.0 1.6 0.00 0.00 0.00 91 1018.5
20260902014401 15 293 0.0 0.0 0.00 0.00 0.00 90 1018.7
20260902013342 15 169 0.0 0.0 0.00 0.00 0.00 90 1018.6
20260902012309 15 169 0.0 0.0 0.00 0.00 0.00 90 1018.6
20260902010207 15 169 0.0 0.0 0.00 0.00 0.00 89 1018.8
20260902005222 15 169 0.0 1.6 0.00 0.00 0.00 89 1018.9
20260902003017 15 255 0.0 3.2 0.00 0.00 0.00 89 1019.0
20260902002028 15 294 0.0 6.4 0.00 0.00 0.00 89 1019.1
20260902001020 15 286 1.6 4.8 0.00 0.00 0.00 89 1019.1
20260901234901 15 292 0.0 0.0 0.00 0.00 0.00 88 1019.1
20260901233833 15 285 0.0 1.6 0.00 0.00 0.00 88 1019.1
20260901232840 15 285 0.0 0.0 0.00 0.00 0.00 87 1019.2